Wetbulb
58.53 58.42 57.72 57.58 57.60 57.28 56.52 54.81 54.26 54.06 54.38 52.92 53.74 53.94 53.99 53.58 53.51 53.05 52.91 52.94 52.46 52.16 52.24 51.85 51.44 51.88 51.09 51.19 51.19 50.41 49.74 49.51 47.17 47.12 48.51 47.60 45.70 43.75 41.15 43.12 46.00 44.22 43.09
58.99 58.63 58.33 56.61 56.86 56.62 56.28 56.28 55.63 54.29 54.59 53.02 53.43 52.37 52.04 52.56 51.75 51.99 50.78 51.35 51.53 51.17 51.43 51.08 50.74 50.82 50.47 50.72 50.58 49.65 48.80 48.94 47.77 43.60 45.73 44.92 44.38 42.55 40.59 39.77 43.97 43.40 41.82
58.71 57.55 56.83 56.49 55.66 55.37 55.47 55.46 55.76 55.33 54.33 53.33 52.27 51.42 51.42 51.33 50.83 51.06 51.34 51.09 50.52 50.96 51.29 50.46 50.47 50.22 49.62 49.99 49.82 49.24 48.89 47.75 47.85 44.69 43.45 44.08 43.76 41.80 38.52 39.22 40.10 38.41 40.25
57.92 57.22 56.19 55.50 55.59 55.70 55.54 54.98 55.17 55.00 54.43 52.93 52.40 52.22 51.80 51.47 51.00 50.65 50.86 50.42 50.14 50.56 50.87 50.73 50.59 50.27 49.40 49.76 49.16 48.85 48.18 46.23 46.09 44.79 43.02 42.29 41.70 40.33 37.94 37.32 35.83 36.46 35.18
57.40 57.34 57.31 56.19 55.90 55.90 55.33 54.89 55.43 55.26 54.02 53.45 52.49 51.59 51.37 50.60 50.28 49.61 49.16 50.41 49.99 48.96 49.45 50.23 50.45 49.55 47.80 49.53 48.80 48.33 47.45 45.26 44.64 43.82 41.79 40.89 39.57 38.36 35.29 37.15 36.71 35.72 36.80
57.13 56.99 57.10 57.12 56.08 56.63 56.51 55.67 55.02 53.85 53.47 53.31 51.63 51.13 50.58 50.22 49.09 48.99 49.21 48.53 48.05 48.29 48.34 48.81 49.83 46.09 47.29 48.49 48.23 48.11 47.92 45.27 43.85 42.95 41.71 39.52 39.39 37.18 37.14 35.22 36.16 34.22 32.69
55.58 56.78 56.81 56.90 56.24 55.70 56.01 55.42 53.19 52.25 52.24 51.73 51.25 50.54 49.62 49.64 48.61 48.64 47.98 47.96 47.50 47.41 47.72 47.75 47.16 47.29 47.13 47.90 47.40 47.34 47.01 47.19 46.58 44.36 41.26 39.99 39.36 38.78 36.51 34.63 34.62 34.87 33.53
53.15 54.14 55.78 55.02 55.04 54.51 54.12 53.24 52.60 52.14 51.25 51.35 51.78 51.08 50.16 49.37 47.89 48.25 47.64 47.41 46.43 46.28 46.36 45.62 45.48 44.87 46.36 46.69 45.78 45.08 44.57 44.94 45.03 44.14 43.31 42.14 41.91 40.82 37.95 36.80 35.66 34.15 33.60
50.94 50.85 52.46 53.04 52.40 52.65 52.54 52.16 52.01 50.94 50.30 50.41 49.83 49.49 49.22 48.88 46.76 46.89 46.71 45.99 44.76 44.24 45.20 45.04 44.88 44.56 45.60 46.38 44.82 43.28 42.87 42.97 44.79 43.76 43.08 44.14 43.28 42.75 40.24 36.40 33.54 31.83 29.91
46.14 47.25 48.09 49.55 49.67 48.97 48.79 48.06 47.59 48.84 48.26 48.14 47.14 48.01 47.66 47.70 45.93 46.46 46.25 45.53 43.79 43.36 43.71 44.13 44.86 44.42 45.69 46.12 44.55 43.13 41.36 40.62 40.41 38.42 38.08 39.10 40.68 40.83 41.49 36.81 34.80 31.55 31.20
43.10 43.19 43.93 44.49 46.04 46.14 45.46 45.51 46.02 45.62 45.33 45.08 44.54 45.02 45.50 46.67 45.99 46.28 46.28 44.55 43.90 42.68 41.81 41.87 43.78 45.08 45.46 45.72 45.28 43.46 42.50 42.26 41.28 37.99 36.29 35.88 35.50 35.90 35.49 35.69 35.27 34.76 31.84
41.96 41.41 41.68 43.18 44.02 44.93 44.65 44.31 44.09 43.50 42.42 41.81 41.65 41.33 42.62 44.00 45.47 45.95 46.03 45.31 45.07 42.52 41.56 41.87 42.52 44.05 44.32 44.80 44.38 44.67 44.65 42.68 39.55 36.80 35.13 34.40 34.01 34.52 34.66 34.51 34.44 34.85 34.45
41.54 41.04 41.49 41.94 42.51 44.18 44.53 44.31 44.43 44.52 43.36 41.62 40.76 39.83 39.47 41.13 43.27 45.22 46.13 45.44 44.89 42.32 41.88 41.98 42.70 43.36 43.77 44.04 44.07 43.70 43.76 39.25 36.03 33.95 33.76 33.69 34.43 36.03 34.60 33.13 33.17 32.87 32.08
39.45 39.15 39.71 39.65 40.39 41.36 41.73 42.83 42.42 41.32 39.95 39.94 40.74 41.20 39.31 39.45 41.51 43.90 44.43 43.63 43.39 41.32 41.44 41.54 42.20 42.62 42.89 42.98 42.89 42.37 40.56 37.93 35.37 34.24 34.13 34.59 34.48 33.80 32.81 32.46 31.01 30.55 28.70
37.95 37.93 37.99 38.47 38.86 38.02 37.76 38.45 39.42 38.07 38.76 40.17 39.27 39.37 39.34 39.39 40.34 43.52 43.48 42.07 41.60 40.30 39.58 39.32 39.18 39.82 39.77 40.40 40.09 39.52 39.14 37.80 35.17 34.63 33.59 33.03 32.46 32.22 31.51 32.23 29.99 30.07 27.91
35.66 35.67 35.98 36.38 37.07 38.04 38.15 37.41 39.86 39.49 39.61 39.64 39.77 39.43 38.97 39.40 40.47 42.56 43.40 42.62 41.88 41.37 38.01 36.79 36.53 37.15 37.05 38.30 37.30 37.26 37.71 36.72 35.31 34.27 33.48 32.61 31.43 30.75 30.57 30.96 31.18 30.10 29.02
34.57 34.99 35.25 35.99 35.82 35.22 35.37 35.88 35.18 37.71 38.75 38.21 38.96 38.83 39.04 39.31 39.77 40.69 42.53 41.82 41.62 41.00 36.79 36.31 35.74 36.14 36.22 36.81 37.27 36.79 36.05 35.16 34.15 33.89 33.27 32.49 31.53 30.65 30.97 30.04 29.94 29.72 29.30
34.19 34.61 33.81 33.87 34.32 34.68 34.86 34.90 34.91 34.63 34.12 34.15 36.69 37.41 37.93 38.45 38.95 39.90 41.18 41.76 39.57 39.78 36.33 35.53 35.39 36.20 36.30 36.53 36.39 35.90 35.40 34.22 33.80 33.56 33.26 32.89 32.22 31.42 30.73 30.14 29.95 29.42 29.60
32.35 32.65 32.99 33.10 33.49 33.64 33.82 33.72 33.78 33.54 33.23 32.91 32.93 34.38 35.93 36.53 37.55 38.27 38.24 35.95 35.28 34.98 34.51 35.00 35.33 34.35 34.68 35.57 36.17 36.38 35.15 34.15 33.70 32.98 32.81 32.59 32.31 31.88 31.10 31.17 31.04 32.07 31.54
30.30 31.63 32.38 31.62 31.49 31.47 31.70 31.68 32.02 32.14 32.12 32.09 31.59 32.50 34.36 33.84 32.05 32.29 33.35 33.31 32.99 32.88 33.21 33.07 33.39 33.82 34.01 34.55 34.35 34.76 34.41 34.42 33.59 33.28 33.18 33.01 32.75 32.48 31.86 32.02 32.08 31.69 31.70
28.30 28.48 30.00 29.42 29.05 29.46 29.62 29.41 29.68 30.47 30.36 30.75 30.93 32.83 34.80 33.67 32.48 33.02 32.75 32.75 32.79 32.81 32.84 32.71 32.75 32.80 33.90 34.31 34.02 33.55 33.20 33.13 33.31 33.10 33.05 33.08 33.13 32.30 32.66 32.37 32.13 32.00 31.78
26.45 26.23 26.55 26.32 27.66 27.42 27.66 28.08 28.01 28.10 28.22 28.24 28.94 30.02 32.73 31.99 31.40 31.25 32.18 32.78 33.26 33.17 33.27 33.23 33.35 33.78 33.82 33.44 33.09 32.89 32.86 32.80 32.94 32.90 32.70 32.65 32.41 32.17 32.15 31.96 31.78 31.55 30.90
24.75 24.12 24.12 24.56 24.91 26.13 25.81 26.32 25.87 25.80 25.87 26.30 26.97 27.59 28.41 28.64 29.49 29.90 30.23 30.92 31.45 32.05 32.56 32.48 32.51 32.54 33.50 33.29 33.60 33.09 32.51 32.53 32.79 33.15 32.37 32.24 32.07 31.99 32.08 31.70 31.36 30.76 30.36
23.41 22.52 22.14 22.45 22.70 22.96 23.03 23.21 23.77 24.45 24.43 24.58 24.98 25.61 26.36 27.10 27.65 27.97 28.36 29.02 29.72 30.85 32.57 32.22 31.98 31.99 32.49 32.61 33.01 33.21 33.21 33.13 33.90 33.31 33.31 32.60 32.30 32.66 32.09 31.61 30.98 30.41 29.88
22.33 21.47 21.15 21.11 21.16 21.44 21.77 22.06 22.38 22.86 23.23 23.52 23.71 24.18 24.68 25.29 26.07 26.97 27.25 27.68 27.71 27.43 27.74 28.68 30.53 31.07 31.54 31.74 32.24 32.70 32.86 33.74 32.38 32.17 32.31 32.03 31.96 32.02 31.53 30.84 30.42 29.91 29.70
21.35 20.83 20.59 20.83 20.67 20.96 20.98 21.14 21.79 22.39 22.50 22.95 23.24 23.51 23.72 23.84 24.71 25.62 25.68 25.58 25.58 25.36 26.03 27.06 26.25 24.01 23.75 25.15 26.76 29.31 32.04 32.41 32.09 32.94 32.30 31.99 31.10 30.65 29.92 29.24 29.81 29.85 29.28
MSLP
1005.10 1006.26 1007.17 1007.30 1008.18 1008.81 1009.32 1009.96 1010.38 1010.84 1011.47 1011.89 1012.19 1012.82 1013.17 1013.73 1014.31 1014.77 1015.46 1015.88 1016.57 1017.02 1017.39 1017.78 1018.41 1018.78 1019.05 1019.29 1019.50 1019.86 1020.19 1020.64 1021.20 1022.39 1023.00 1024.07 1024.92 1025.51 1026.21 1026.05 1026.67 1026.82 1027.17
1004.96 1005.28 1006.17 1007.23 1007.88 1008.36 1008.80 1009.17 1009.81 1010.33 1010.79 1011.18 1011.74 1012.34 1012.85 1013.16 1013.65 1014.07 1014.66 1014.99 1015.69 1016.44 1016.83 1017.34 1017.78 1018.30 1018.83 1019.18 1019.57 1019.70 1020.05 1020.29 1020.81 1021.98 1023.11 1024.01 1024.56 1025.23 1025.78 1026.33 1026.49 1026.59 1026.98
1004.54 1005.21 1005.54 1006.98 1007.70 1008.24 1008.46 1008.94 1009.47 1010.09 1010.44 1010.57 1011.42 1011.77 1012.29 1012.59 1013.07 1013.42 1013.85 1014.14 1014.60 1015.17 1016.34 1016.86 1017.39 1017.81 1018.29 1018.57 1019.06 1019.67 1019.97 1020.32 1020.56 1021.44 1022.39 1023.48 1024.32 1025.04 1025.84 1026.22 1026.67 1026.85 1027.04
1003.78 1004.78 1005.26 1005.75 1006.77 1007.53 1008.17 1008.53 1009.00 1009.21 1009.74 1010.28 1010.73 1010.91 1011.49 1012.02 1012.56 1013.16 1013.64 1013.70 1013.90 1014.42 1015.07 1016.02 1016.38 1016.94 1017.64 1018.09 1018.46 1019.20 1019.93 1020.66 1021.00 1021.30 1022.44 1023.26 1023.84 1024.60 1025.61 1026.21 1026.70 1027.13 1027.41
1003.83 1004.46 1004.96 1005.28 1005.81 1006.91 1007.59 1007.68 1007.97 1008.61 1009.01 1009.23 1009.92 1010.45 1010.64 1011.13 1012.11 1012.34 1013.15 1013.23 1013.41 1013.70 1014.58 1014.90 1015.82 1016.09 1016.78 1017.49 1018.12 1018.56 1019.18 1020.38 1021.09 1021.37 1022.28 1022.99 1023.31 1023.79 1024.82 1025.53 1026.04 1026.68 1026.92
1003.65 1004.23 1004.84 1005.06 1005.45 1006.04 1006.82 1007.12 1007.47 1007.94 1008.37 1008.93 1009.15 1009.55 1010.34 1010.77 1010.90 1011.82 1012.03 1013.06 1013.23 1012.79 1013.80 1014.88 1015.14 1016.13 1016.42 1016.86 1017.58 1018.27 1018.81 1019.69 1020.23 1020.63 1021.57 1022.66 1022.59 1022.90 1023.94 1024.75 1025.58 1026.34 1026.63
1003.66 1003.90 1004.28 1004.66 1004.89 1005.43 1006.00 1006.38 1007.11 1007.50 1008.00 1008.36 1008.96 1008.67 1009.58 1010.46 1010.77 1011.17 1012.28 1012.61 1013.45 1013.17 1013.44 1014.15 1014.91 1015.85 1016.70 1017.07 1017.29 1017.93 1018.64 1019.32 1019.79 1019.76 1020.81 1021.81 1022.30 1022.48 1022.97 1024.05 1024.93 1025.39 1025.63
1004.11 1004.05 1004.30 1004.72 1004.76 1005.21 1005.73 1006.09 1006.54 1006.93 1007.35 1007.63 1008.24 1008.53 1009.47 1009.66 1010.06 1010.27 1011.00 1012.10 1012.66 1012.40 1013.61 1014.07 1014.46 1015.67 1016.29 1017.37 1017.41 1017.89 1018.45 1019.10 1020.01 1019.76 1020.42 1021.13 1021.59 1022.22 1022.09 1023.08 1024.12 1025.24 1025.81
1004.67 1004.99 1005.14 1005.20 1004.86 1005.11 1005.45 1005.77 1006.28 1006.70 1006.98 1007.50 1007.63 1007.97 1008.66 1009.10 1009.70 1010.79 1010.44 1012.03 1012.16 1012.18 1013.46 1013.42 1013.52 1014.29 1016.27 1016.60 1016.84 1018.10 1018.30 1018.95 1019.52 1019.93 1020.40 1020.88 1021.49 1021.96 1022.44 1023.43 1024.12 1025.03 1025.65
1005.49 1005.60 1005.79 1005.71 1005.55 1005.68 1005.89 1006.23 1006.28 1006.48 1006.97 1007.18 1007.51 1008.08 1008.31 1008.84 1009.21 1010.08 1010.60 1011.19 1012.18 1012.85 1012.17 1013.37 1013.71 1013.69 1014.72 1015.57 1016.20 1017.36 1018.09 1018.89 1019.62 1019.99 1020.71 1021.46 1021.73 1021.89 1022.20 1022.68 1023.58 1024.42 1024.84
1006.26 1006.32 1006.24 1006.38 1006.44 1006.70 1006.72 1006.75 1006.72 1006.93 1007.15 1007.66 1008.08 1008.38 1008.37 1008.98 1009.16 1009.83 1010.59 1011.03 1011.80 1012.76 1011.39 1012.54 1013.31 1014.02 1014.36 1014.81 1015.61 1016.54 1016.88 1018.28 1019.12 1019.89 1020.81 1021.44 1021.94 1022.07 1022.42 1022.46 1022.78 1023.38 1023.89
1006.81 1006.98 1006.97 1006.97 1007.06 1007.10 1007.18 1007.30 1007.48 1007.67 1007.95 1008.38 1008.64 1008.89 1009.13 1009.21 1009.56 1010.00 1010.36 1011.17 1011.80 1011.31 1011.50 1012.40 1013.04 1013.89 1014.24 1014.71 1015.43 1015.75 1016.70 1017.64 1018.79 1019.90 1020.56 1021.12 1021.70 1022.03 1022.37 1022.76 1022.96 1023.16 1023.41
1007.57 1007.72 1007.68 1007.55 1007.52 1007.20 1007.29 1007.53 1007.55 1008.00 1008.34 1008.79 1008.93 1009.29 1009.50 1009.36 1009.31 1009.64 1010.14 1010.60 1011.10 1011.60 1011.79 1012.63 1013.24 1013.91 1014.58 1014.88 1015.38 1015.55 1016.83 1017.77 1018.48 1019.31 1019.90 1020.74 1021.23 1022.05 1022.54 1023.06 1023.55 1023.55 1023.92
1008.35 1008.64 1008.88 1008.87 1008.75 1008.52 1008.42 1008.30 1008.45 1008.81 1008.97 1008.98 1009.09 1009.50 1009.85 1009.61 1009.61 1009.89 1010.30 1010.82 1011.26 1012.15 1012.53 1012.89 1013.42 1013.78 1014.35 1014.54 1015.45 1016.02 1016.68 1017.38 1017.97 1018.68 1019.45 1020.15 1020.99 1022.14 1022.62 1023.01 1023.39 1023.73 1024.23
1009.32 1009.55 1009.70 1009.76 1009.79 1009.79 1009.95 1009.90 1009.70 1010.06 1009.91 1009.54 1009.96 1009.87 1009.77 1009.91 1010.22 1010.45 1010.76 1011.11 1011.47 1011.99 1012.68 1013.21 1013.74 1014.06 1014.32 1014.50 1015.27 1015.94 1016.86 1017.15 1017.94 1018.50 1019.37 1020.11 1020.60 1021.84 1022.47 1022.57 1022.90 1023.81 1024.10
1010.38 1010.60 1010.64 1010.47 1010.49 1010.22 1010.44 1010.76 1010.84 1010.80 1010.69 1010.56 1010.43 1010.30 1010.38 1010.54 1010.64 1010.82 1010.98 1011.32 1011.75 1012.21 1012.92 1013.69 1014.04 1014.15 1014.40 1014.67 1015.15 1015.90 1016.73 1017.10 1017.84 1018.33 1018.77 1019.54 1020.31 1021.23 1021.88 1022.14 1022.30 1022.98 1023.41
1011.81 1012.06 1011.91 1011.71 1011.57 1011.42 1011.47 1011.27 1011.49 1011.68 1011.50 1011.54 1011.43 1011.45 1011.44 1011.52 1011.19 1011.08 1011.29 1011.55 1011.99 1012.55 1013.08 1013.47 1013.85 1014.16 1014.51 1014.80 1015.25 1015.90 1016.35 1016.95 1017.20 1017.99 1018.63 1018.92 1019.52 1020.38 1021.13 1021.61 1022.10 1022.56 1022.83
1013.03 1013.07 1012.83 1012.84 1012.76 1012.61 1012.43 1012.30 1012.26 1012.19 1012.25 1012.50 1012.65 1012.53 1012.43 1012.28 1012.11 1012.01 1012.12 1012.27 1012.58 1012.90 1013.26 1013.57 1013.89 1014.13 1014.44 1014.77 1015.13 1015.61 1016.17 1016.70 1017.06 1017.49 1018.23 1018.42 1018.96 1019.64 1020.41 1021.09 1021.51 1021.69 1022.05
1014.16 1014.08 1014.04 1013.94 1013.78 1013.65 1013.44 1013.27 1013.19 1013.13 1013.16 1013.43 1013.57 1013.48 1013.40 1013.29 1013.19 1013.14 1013.18 1013.29 1013.35 1013.43 1013.69 1013.89 1014.07 1014.20 1014.38 1014.50 1014.83 1015.21 1015.67 1016.20 1016.68 1017.22 1017.66 1018.07 1018.52 1019.16 1019.82 1020.22 1020.52 1020.73 1021.26
1015.54 1015.45 1015.17 1015.04 1014.91 1014.76 1014.58 1014.37 1014.27 1014.20 1014.11 1014.11 1014.15 1014.05 1013.85 1013.69 1013.83 1014.07 1014.11 1014.10 1014.07 1014.05 1014.17 1014.31 1014.37 1014.41 1014.47 1014.58 1014.80 1015.04 1015.39 1015.79 1016.26 1016.73 1017.15 1017.66 1018.19 1018.65 1018.96 1019.26 1019.52 1020.01 1020.46
1016.61 1016.46 1016.24 1016.08 1016.03 1015.88 1015.73 1015.60 1015.48 1015.30 1015.13 1015.00 1014.94 1014.83 1014.54 1014.39 1014.52 1014.54 1014.56 1014.60 1014.65 1014.57 1014.61 1014.64 1014.70 1014.74 1014.75 1014.84 1015.03 1015.26 1015.49 1015.72 1015.99 1016.37 1016.74 1017.05 1017.36 1017.70 1017.99 1018.41 1018.80 1019.24 1019.64
1017.57 1017.38 1017.21 1017.07 1016.91 1016.76 1016.61 1016.49 1016.34 1016.16 1016.03 1015.88 1015.71 1015.56 1015.31 1015.21 1015.19 1015.08 1015.03 1015.04 1015.08 1015.04 1014.96 1014.94 1014.88 1014.84 1014.86 1014.97 1015.11 1015.26 1015.42 1015.57 1015.77 1015.97 1016.18 1016.40 1016.71 1017.07 1017.47 1017.83 1018.21 1018.59 1018.96
1018.33 1018.13 1017.92 1017.76 1017.61 1017.37 1017.16 1016.97 1016.84 1016.71 1016.59 1016.45 1016.25 1016.07 1015.88 1015.73 1015.59 1015.53 1015.44 1015.32 1015.25 1015.17 1015.08 1015.08 1015.03 1014.92 1014.84 1014.88 1014.93 1014.99 1015.11 1015.20 1015.33 1015.54 1015.77 1016.02 1016.30 1016.63 1016.95 1017.23 1017.53 1017.92 1018.23
1018.93 1018.66 1018.43 1018.26 1018.10 1017.88 1017.70 1017.54 1017.40 1017.23 1017.09 1016.91 1016.73 1016.56 1016.39 1016.20 1016.09 1016.00 1015.91 1015.79 1015.65 1015.44 1015.17 1015.13 1015.08 1015.05 1014.92 1014.86 1014.83 1014.89 1014.97 1015.03 1015.11 1015.23 1015.39 1015.61 1015.80 1016.08 1016.31 1016.57 1016.78 1017.10 1017.49
1019.34 1019.11 1018.85 1018.59 1018.42 1018.25 1018.05 1017.84 1017.67 1017.52 1017.41 1017.27 1017.11 1016.95 1016.80 1016.65 1016.44 1016.30 1016.22 1016.12 1015.98 1015.77 1015.58 1015.38 1015.20 1015.12 1015.01 1014.92 1014.87 1014.82 1014.78 1014.85 1014.96 1015.00 1015.10 1015.24 1015.39 1015.53 1015.78 1016.09 1016.42 1016.73 1017.05
1019.62 1019.40 1019.18 1018.93 1018.75 1018.58 1018.39 1018.16 1017.93 1017.73 1017.57 1017.42 1017.29 1017.16 1017.00 1016.83 1016.57 1016.40 1016.39 1016.34 1016.27 1016.19 1015.90 1015.58 1015.43 1015.35 1015.30 1015.12 1014.92 1014.78 1014.65 1014.65 1014.69 1014.78 1014.95 1014.98 1015.12 1015.31 1015.49 1015.73 1015.96 1016.15 1016.50
Wind_Speed
14 13 12 12 15 15 13 12 12 11 12 10 12 14 14 14 13 13 12 11 12 11 10 10 10 8 6 6 6 5 4 3 4 4 5 8 7 6 5 4 7 6 4
13 12 11 10 11 13 13 13 12 12 8 12 13 13 13 13 13 14 13 12 13 12 11 10 11 8 9 7 6 7 6 5 3 10 7 7 8 8 7 5 5 5 6
12 11 13 12 12 13 13 12 11 12 13 12 11 13 13 13 14 14 15 14 13 13 12 12 11 12 11 8 7 7 5 4 4 7 7 7 5 5 5 5 3 2 4
10 11 12 14 15 14 14 13 13 12 11 12 14 15 15 12 12 12 14 14 14 13 13 13 13 13 13 12 10 8 6 5 4 7 7 8 7 6 5 6 5 3 4
9 11 11 12 12 13 12 13 12 12 15 13 14 12 12 11 11 12 13 14 13 12 11 12 13 13 15 12 9 10 11 8 7 7 7 7 8 9 10 6 6 5 5
10 11 11 12 13 14 13 12 12 10 11 10 11 12 13 10 15 22 13 12 10 13 13 11 10 10 13 14 14 12 11 12 10 8 6 9 10 8 8 8 6 6 5
2 5 8 9 9 11 11 9 11 12 11 12 11 8 11 11 14 14 13 7 8 7 10 11 9 6 9 9 12 10 11 9 9 9 10 8 8 11 10 10 7 7 2
2 3 3 4 6 7 9 11 10 9 11 10 12 13 12 10 17 21 20 12 11 11 10 10 10 8 10 10 10 9 8 6 5 5 6 6 6 9 10 9 9 5 4
3 5 4 1 2 4 6 7 7 7 7 8 6 7 9 7 13 15 17 11 9 10 11 12 14 14 15 17 11 11 9 6 6 7 5 5 7 12 10 6 6 6 3
7 5 5 4 3 3 3 3 2 3 4 4 4 6 7 6 14 16 17 8 9 8 11 11 18 15 23 20 12 12 11 8 8 5 4 3 5 9 14 8 8 8 3
7 6 7 7 6 5 4 3 3 4 5 4 4 3 3 4 5 15 19 8 8 8 8 8 8 18 23 22 16 11 10 10 8 6 5 5 5 5 4 4 6 5 4
6 7 7 5 3 4 6 5 5 5 5 4 4 3 2 3 6 15 20 13 11 8 6 6 7 18 19 21 16 16 14 14 8 7 6 6 6 6 5 4 5 4 3
9 9 8 8 8 7 7 5 5 4 3 3 3 2 1 1 1 6 13 11 7 3 4 7 11 14 15 14 13 15 14 8 8 7 7 5 4 4 5 5 4 7 6
11 10 8 8 7 7 5 5 5 5 5 4 4 3 2 2 2 2 4 6 10 6 10 8 10 11 11 8 10 10 8 7 7 7 6 5 5 5 5 3 3 3 3
11 9 8 7 7 8 9 8 6 8 7 5 4 4 3 3 1 2 5 4 5 7 7 4 3 4 6 6 6 7 6 6 7 6 6 7 6 6 5 5 3 3 2
11 9 8 7 6 6 5 8 17 16 18 18 19 13 4 7 5 2 7 10 12 15 4 3 3 3 4 5 7 7 7 9 7 7 7 8 8 8 7 5 4 5 5
10 9 8 9 7 7 6 5 6 9 19 22 19 20 19 16 10 6 4 10 13 11 2 3 4 4 3 4 5 6 7 6 5 6 7 8 7 7 11 7 7 6 5
12 18 8 8 7 7 7 6 6 6 6 7 13 15 17 16 16 14 5 6 4 4 2 2 3 4 4 5 5 5 4 5 6 7 7 7 7 8 8 8 8 7 6
10 8 8 7 7 9 7 7 7 7 6 6 6 9 11 13 14 14 13 5 2 1 1 2 2 2 2 3 5 5 6 7 7 7 7 7 7 8 8 7 8 12 10
9 17 12 7 7 7 7 7 7 6 6 6 6 6 5 7 7 6 5 4 3 3 2 2 1 1 1 1 1 3 4 6 6 7 7 7 7 8 8 8 8 8 9
7 7 13 7 6 6 6 6 6 5 5 5 5 7 13 4 4 4 4 4 4 4 2 1 0 1 1 1 2 3 4 4 5 6 7 7 7 7 7 7 7 8 7
7 6 6 6 6 6 5 5 5 4 4 4 4 5 10 5 4 4 3 3 3 3 3 3 1 2 2 3 3 4 5 5 5 6 6 6 7 7 6 7 7 7 7
6 7 7 6 6 7 5 5 5 5 5 5 5 4 4 4 4 4 4 4 3 2 1 2 2 2 1 2 3 3 3 4 5 5 5 6 6 6 7 7 7 7 7
7 7 6 5 5 5 4 5 4 5 5 4 4 4 4 4 4 4 4 4 3 4 2 1 2 3 2 2 2 3 3 3 5 5 8 6 6 8 7 7 7 8 7
6 6 6 5 5 5 5 5 4 4 4 5 4 4 4 4 4 3 5 5 4 3 3 3 4 4 4 5 4 4 5 7 4 4 3 5 6 7 5 4 5 5 6
6 6 6 5 5 5 5 5 5 5 5 4 4 4 4 4 4 4 4 5 5 6 6 4 4 5 5 4 6 8 12 12 11 12 5 5 5 5 5 6 7 5 7
Wind_Direction
182 190 204 199 205 205 206 200 195 192 201 197 194 194 192 192 192 191 195 188 203 198 193 193 200 202 191 190 179 191 187 200 162 128 138 155 162 149 161 150 159 142 132
205 192 194 202 212 210 205 200 199 199 194 202 197 191 198 194 190 192 196 193 195 205 198 194 198 192 191 190 192 191 188 185 154 150 150 159 172 161 163 159 190 151 141
204 199 189 205 204 211 208 199 198 202 198 192 193 195 196 199 193 199 198 193 190 189 199 198 200 192 195 187 184 193 189 178 169 152 148 158 155 151 136 166 146 125 132
193 204 201 195 203 205 207 199 196 197 201 198 199 201 199 199 202 208 208 199 188 194 194 199 196 195 194 190 183 181 174 166 176 146 147 163 151 158 152 167 159 162 162
192 205 210 193 192 206 210 199 201 196 202 197 200 200 199 187 194 201 206 210 201 185 202 189 203 199 188 185 181 179 170 169 177 162 162 168 168 166 182 177 174 175 175
203 205 209 196 195 202 202 194 197 198 199 198 190 196 202 198 190 195 185 205 209 185 190 196 192 182 181 173 171 179 177 174 179 170 166 190 189 165 171 178 172 173 199
283 212 212 209 189 192 205 197 192 192 194 196 202 178 196 200 182 173 191 188 214 213 196 187 176 172 177 184 162 164 172 185 186 168 172 188 184 181 167 171 190 187 181
340 355 190 205 194 182 193 193 192 188 192 191 205 193 199 195 183 191 191 197 194 176 187 173 160 158 176 180 167 168 165 165 178 162 171 189 191 179 172 177 171 155 64
62 44 354 351 204 192 190 188 192 187 185 197 187 183 200 197 183 195 167 195 199 185 194 177 165 157 182 173 160 175 163 156 128 107 62 129 147 163 163 140 161 146 152
31 48 29 25 56 67 99 110 96 127 159 147 151 187 196 198 182 193 184 182 198 202 177 191 181 167 171 171 164 166 162 155 146 128 116 141 171 172 170 170 164 174 138
51 47 54 45 55 64 59 31 67 86 94 98 126 138 145 185 173 192 190 178 195 205 172 175 183 176 173 172 167 170 155 145 153 148 158 149 156 155 169 180 160 157 148
52 48 40 54 73 108 101 85 72 76 78 84 91 83 100 147 183 194 191 192 193 177 179 175 170 175 173 173 164 153 150 149 161 169 169 167 172 173 170 148 143 118 100
72 61 50 52 39 32 68 75 85 91 110 110 92 93 76 26 115 190 186 177 166 134 126 149 154 167 169 172 163 151 167 167 164 164 170 171 162 151 124 105 99 92 80
68 60 57 48 48 53 41 38 63 61 63 51 39 60 68 43 44 128 146 143 144 127 140 147 160 166 170 160 165 168 174 173 169 175 174 145 120 142 155 150 140 141 110
61 56 54 47 53 67 57 27 60 47 37 51 49 49 41 65 58 99 143 141 130 129 109 103 142 159 169 161 162 170 176 170 175 168 157 157 155 160 172 163 119 141 157
53 45 38 45 40 42 71 64 52 63 59 56 48 40 60 44 52 112 135 134 138 139 107 136 154 162 171 172 161 170 184 180 180 169 164 163 167 171 172 167 152 168 173
46 36 34 35 35 44 39 43 84 69 68 48 46 43 44 38 37 47 121 139 150 155 129 159 160 168 175 171 168 177 182 185 155 164 171 169 164 171 175 176 174 178 180
47 45 41 36 32 33 33 38 37 41 49 38 38 38 39 38 36 39 49 129 155 181 147 168 167 162 173 182 178 176 169 162 171 172 177 170 169 171 172 182 186 185 185
35 38 35 35 37 37 33 35 39 42 44 47 31 34 29 39 41 39 38 32 30 77 109 118 129 141 163 172 184 181 171 177 174 175 177 172 170 175 188 190 189 189 188
35 35 39 32 33 31 30 34 31 30 33 35 33 17 18 31 37 36 32 30 33 39 38 56 61 105 101 109 148 160 167 179 175 180 180 178 182 187 192 194 196 206 212
25 23 25 30 29 25 25 28 22 25 24 24 25 14 7 25 16 24 23 24 15 12 13 8 86 185 185 171 164 169 180 182 180 184 188 190 189 199 202 202 204 205 210
19 15 16 18 12 16 17 18 17 16 17 12 9 1 8 24 6 8 12 17 13 4 344 317 295 250 236 228 197 197 200 201 196 195 196 194 194 199 200 204 203 205 204
14 11 9 11 4 1 2 7 7 5 1 358 359 354 360 359 359 353 348 349 346 341 343 337 312 306 302 268 248 213 214 212 211 192 195 196 199 203 203 207 205 205 202
1 2 359 357 354 350 353 347 347 349 346 343 343 344 347 347 348 354 347 352 344 334 337 295 278 290 304 256 223 232 237 232 233 214 212 208 207 208 209 209 199 197 197
349 347 345 345 342 339 338 340 336 337 334 332 331 333 336 331 328 338 335 339 340 334 333 332 308 306 298 296 277 263 253 250 232 215 213 212 214 197 191 189 192 193 192
338 339 335 336 333 334 332 327 324 326 324 325 322 321 322 321 322 331 333 327 334 329 320 325 327 330 316 290 270 264 264 262 257 249 225 216 217 208 191 197 202 194 184